H1 CPF 2 NER 2022 11 5 9 309 01 glonass132 H2 1401201 9132 39620 2022 11 5 0 0 0 2022 11 8 23 45 0 900 1 1 0 0 0 1 H9 10 0 59888 0.00000 0 -3287601.087 16000753.539 19627040.569 10 0 59888 900.00000 0 -4741374.391 17788949.842 17697013.178 10 0 59888 1800.00000 0 -5894961.773 19480232.798 15424400.455 10 0 59888 2700.00000 0 -6747977.028 21009616.524 12853200.440 10 0 59888 3600.00000 0 -7312890.155 22315325.737 10033174.314 10 0 59888 4500.00000 0 -7614246.779 23341362.608 7018894.093 10 0 59888 5400.00000 0 -7687384.725 24039853.563 3868697.951 10 0 59888 6300.00000 0 -7576701.805 24373078.348 643572.213 10 0 59888 7200.00000 0 -7333547.502 24315096.525 -2594019.199 10 0 59888 8100.00000 0 -7013826.991 23852902.898 -5781336.054 10 0 59888 9000.00000 0 -6675418.057 22987062.640 -8856571.200 10 0 59888 9900.00000 0 -6375509.528 21731798.339 -11760044.903 10 0 59888 10800.00000 0 -6167973.397 20114523.804 -14435361.254 10 0 59888 11700.00000 0 -6100881.712 18174842.480 -16830504.245 10 0 59888 12600.00000 0 -6214273.536 15963050.674 -18898852.039 10 0 59888 13500.00000 0 -6538267.110 13538206.480 -20600089.555 10 0 59888 14400.00000 0 -7091598.156 10965843.556 -21901001.249 10 0 59888 15300.00000 0 -7880647.531 8315423.957 -22776128.120 10 0 59888 16200.00000 0 -8899001.139 5657635.315 -23208275.591 10 0 59888 17100.00000 0 -10127562.655 3061644.382 -23188861.611 10 0 59888 18000.00000 0 -11535216.397 592421.188 -22718097.315 10 0 59888 18900.00000 0 -13080014.360 -1691754.706 -21804995.788 10 0 59888 19800.00000 0 -14710839.187 -3741501.738 -20467207.754 10 0 59888 20700.00000 0 -16369474.295 -5518165.182 -18730686.443 10 0 59888 21600.00000 0 -17992994.842 -6995190.713 -16629187.340 10 0 59888 22500.00000 0 -19516379.099 -8158985.167 -14203611.940 10 0 59888 23400.00000 0 -20875229.879 -9009228.616 -11501208.053 10 0 59888 24300.00000 0 -22008490.623 -9558625.269 -8574642.333 10 0 59888 25200.00000 0 -22861040.536 -9832104.739 -5480963.624 10 0 59888 26100.00000 0 -23386058.052 -9865508.760 -2280478.302 10 0 59888 27000.00000 0 -23547051.791 -9703820.647 964439.175 10 0 59888 27900.00000 0 -23319472.327 -9399014.443 4190575.900 10 0 59888 28800.00000 0 -22691836.226 -9007616.899 7335124.676 10 0 59888 29700.00000 0 -21666314.878 -8588087.674 10336917.026 10 0 59888 30600.00000 0 -20258763.635 -8198130.482 13137619.858 10 0 59888 31500.00000 0 -18498190.862 -7892050.471 15682871.575 10 0 59888 32400.00000 0 -16425690.204 -7718270.528 17923335.287 10 0 59888 33300.00000 0 -14092881.989 -7717111.811 19815648.897 10 0 59888 34200.00000 0 -11559930.064 -7918931.988 21323254.302 10 0 59888 35100.00000 0 -8893217.656 -8342698.991 22417090.892 10 0 59888 36000.00000 0 -6162779.418 -8995059.375 23076141.408 10 0 59888 36900.00000 0 -3439596.382 -9869939.335 23287821.252 10 0 59888 37800.00000 0 -792865.387 -10948694.133 23048205.387 10 0 59888 38700.00000 0 1712645.047 -12200798.933 22362089.932 10 0 59888 39600.00000 0 4019044.457 -13585051.667 21242888.403 10 0 59888 40500.00000 0 6077476.305 -15051237.687 19712365.389 10 0 59888 41400.00000 0 7849892.865 -16542187.036 17800213.085 10 0 59888 42300.00000 0 9310377.556 -17996139.134 15543478.744 10 0 59888 43200.00000 0 10445961.870 -19349317.110 12985853.597 10 0 59888 44100.00000 0 11256904.633 -20538605.302 10176836.088 10 0 59888 45000.00000 0 11756423.197 -21504219.033 7170784.648 10 0 59888 45900.00000 0 11969888.778 -22192255.841 4025877.187 10 0 59888 46800.00000 0 11933520.052 -22557021.920 802996.292 10 0 59888 47700.00000 0 11692629.886 -22563036.464 -2435439.204 10 0 59888 48600.00000 0 11299498.702 -22186629.587 -5626674.478 10 0 59888 49500.00000 0 10810963.596 -21417066.072 -8708828.262 10 0 59888 50400.00000 0 10285824.353 -20257146.614 -11622088.488 10 0 59888 51300.00000 0 9782175.414 -18723259.792 -14309871.144 10 0 59888 52200.00000 0 9354776.223 -16844880.733 -16719919.901 10 0 59888 53100.00000 0 9052571.031 -14663535.539 -18805324.967 10 0 59888 54000.00000 0 8916463.294 -12231272.755 -20525441.173 10 0 59888 54900.00000 0 8977439.371 -9608703.880 -21846687.096 10 0 59888 55800.00000 0 9255121.817 -6862693.096 -22743209.121 10 0 59888 56700.00000 0 9756814.694 -4063791.189 -23197396.950 10 0 59888 57600.00000 0 10477082.822 -1283519.587 -23200239.768 10 0 59888 58500.00000 0 11397884.417 1408382.889 -22751515.255 10 0 59888 59400.00000 0 12489253.250 3946636.168 -21859806.820 10 0 59888 60300.00000 0 13710503.152 6272906.494 -20542347.732 10 0 59888 61200.00000 0 15011905.309 8338001.362 -18824694.200 10 0 59888 62100.00000 0 16336768.491 10103679.986 -16740232.993 10 0 59888 63000.00000 0 17623834.818 11544003.449 -14329532.509 10 0 59888 63900.00000 0 18809889.780 12646167.901 -11639549.731 10 0 59888 64800.00000 0 19832475.677 13410786.288 -8722708.580 10 0 59888 65700.00000 0 20632592.876 13851607.485 -5635868.119 10 0 59888 66600.00000 0 21157273.442 13994685.846 -2439201.722 10 0 59888 67500.00000 0 21361917.118 13877037.808 804989.746 10 0 59888 68400.00000 0 21212289.706 13544844.261 4033506.117 10 0 59888 69300.00000 0 20686098.568 13051276.773 7183491.914 10 0 59888 70200.00000 0 19774078.197 12454041.823 10193670.460 10 0 59888 71100.00000 0 18480540.032 11812748.934 13005542.868 10 0 59888 72000.00000 0 16823363.695 11186215.669 15564527.656 10 0 59888 72900.00000 0 14833430.782 10629824.608 17821018.510 10 0 59888 73800.00000 0 12553525.736 10193044.505 19731339.879 10 0 59888 74700.00000 0 10036750.859 9917220.172 21258582.485 10 0 59888 75600.00000 0 7344522.355 9833723.661 22373303.778 10 0 59888 76500.00000 0 4544231.352 9962543.489 23054081.255 10 0 59888 77400.00000 0 1706667.241 10311369.952 23287909.589 10 0 59888 78300.00000 0 -1096690.193 10875213.545 23070435.553 10 0 59888 79200.00000 0 -3796398.653 11636571.288 22406027.724 10 0 59888 80100.00000 0 -6327689.589 12566133.041 21307680.772 10 0 59888 81000.00000 0 -8632905.547 13623997.737 19796757.020 10 0 59888 81900.00000 0 -10663639.716 14761348.538 17902570.537 10 0 59888 82800.00000 0 -12382491.034 15922517.174 15661821.755 10 0 59888 83700.00000 0 -13764364.055 17047351.787 13117892.981 10 0 59888 84600.00000 0 -14797261.337 18073790.068 10320017.557 10 0 59888 85500.00000 0 -15482536.727 18940530.905 7322337.787 10 0 59889 0.00000 0 -15834600.010 19589693.446 4182868.929 10 0 59889 900.00000 0 -15880085.996 19969353.035 962386.505 10 0 59889 1800.00000 0 -15656522.599 20035847.102 -2276738.261 10 0 59889 2700.00000 0 -15210554.349 19755755.245 -5471738.789 10 0 59889 3600.00000 0 -14595795.057 19107468.842 -8560662.500 10 0 59889 4500.00000 0 -13870399.775 18082283.555 -11483567.722 10 0 59889 5400.00000 0 -13094457.788 16684967.328 -14183684.942 10 0 59889 6300.00000 0 -12327316.156 14933778.111 -16608519.921 10 0 59889 7200.00000 0 -11624946.449 12859928.498 -18710877.074 10 0 59889 8100.00000 0 -11037465.825 10506517.456 -20449783.046 10 0 59889 9000.00000 0 -10606917.358 7926971.562 -21791292.143 10 0 59889 9900.00000 0 -10365403.888 5183058.900 -22709157.441 10 0 59889 10800.00000 0 -10333655.075 2342556.690 -23185353.912 10 0 59889 11700.00000 0 -10520089.231 -523331.564 -23210442.642 10 0 59889 12600.00000 0 -10920410.851 -3342702.678 -22783768.166 10 0 59889 13500.00000 0 -11517762.189 -6045711.210 -21913484.150 10 0 59889 14400.00000 0 -12283423.788 -8567243.027 -20616405.931 10 0 59889 15300.00000 0 -13178035.507 -10849393.398 -18917691.821 10 0 59889 16200.00000 0 -14153287.285 -12843645.989 -16850358.590 10 0 59889 17100.00000 0 -15154008.607 -14512661.406 -14454639.898 10 0 59889 18000.00000 0 -16120568.255 -15831600.186 -11777199.939 10 0 59889 18900.00000 0 -16991482.341 -16788924.856 -8870217.671 10 0 59889 19800.00000 0 -17706119.319 -17386647.790 -5790359.946 10 0 59889 20700.00000 0 -18207386.251 -17640015.240 -2597664.521 10 0 59889 21600.00000 0 -18444281.226 -17576642.192 645644.072 10 0 59889 22500.00000 0 -18374202.561 -17235136.232 3876381.266 10 0 59889 23400.00000 0 -17964915.905 -16663270.524 7031646.259 10 0 59889 24300.00000 0 -17196095.270 -15915785.264 10050057.178 10 0 59889 25200.00000 0 -16060372.462 -15051912.600 12872952.337 10 0 59889 26100.00000 0 -14563850.679 -14132731.444 15445533.270 10 0 59889 27000.00000 0 -12726061.020 -13218465.326 17717926.973 10 0 59889 27900.00000 0 -10579364.311 -12365838.104 19646146.911 10 0 59889 28800.00000 0 -8167824.115 -11625599.263 21192934.762 10 0 59889 29700.00000 0 -5545598.679 -11040322.534 22328467.776 10 0 59889 30600.00000 0 -2774919.309 -10642569.431 23030919.535 10 0 59889 31500.00000 0 76260.507 -10453493.468 23286864.881 10 0 59889 32400.00000 0 2936847.968 -10481942.029 23091522.895 10 0 59889 33300.00000 0 5735319.525 -10724091.886 22448834.725 10 0 59889 34200.00000 0 8402444.102 -11163632.253 21371375.959 10 0 59889 35100.00000 0 10873909.865 -11772486.585 19880106.069 10 0 59889 36000.00000 0 13092747.665 -12512042.273 18003960.094 10 0 59889 36900.00000 0 15011452.650 -13334836.538 15779290.381 10 0 59889 37800.00000 0 16593718.003 -14186628.188 13249168.680 10 0 59889 38700.00000 0 17815710.606 -15008768.994 10462561.215 10 0 59889 39600.00000 0 18666836.891 -15740776.042 7473391.731 10 0 59889 40500.00000 0 19149968.102 -16322997.982 4339509.476 10 0 59889 41400.00000 0 19281116.209 -16699263.906 1121580.931 10 0 59889 42300.00000 0 19088574.240 -16819404.059 -2118074.178 10 0 59889 43200.00000 0 18611557.006 -16641536.455 -5316680.948 10 0 59889 44100.00000 0 17898398.862 -16134022.898 -8412218.922 10 0 59889 45000.00000 0 17004383.694 -15277011.255 -11344620.153 10 0 59889 45900.00000 0 15989297.816 -14063497.807 -14056932.768 10 0 59889 46800.00000 0 14914808.181 -12499863.202 -16496427.503 10 0 59889 47700.00000 0 13841775.890 -10605857.415 -18615625.571 10 0 59889 48600.00000 0 12827617.927 -8414031.989 -20373227.651 10 0 59889 49500.00000 0 11923828.245 -5968640.834 -21734925.616 10 0 59889 50400.00000 0 11173762.947 -3324053.294 -22674080.637 10 0 59889 51300.00000 0 10610783.379 -542743.588 -23172253.905 10 0 59889 52200.00000 0 10256836.165 2307061.335 -23219578.896 10 0 59889 53100.00000 0 10121530.926 5153978.744 -22814967.029 10 0 59889 54000.00000 0 10201755.586 7926204.624 -21966141.834 10 0 59889 54900.00000 0 10481846.464 10554272.271 -20689499.919 10 0 59889 55800.00000 0 10934306.854 12973719.951 -19009800.531 10 0 59889 56700.00000 0 11521044.334 15127556.135 -16959688.921 10 0 59889 57600.00000 0 12195074.829 16968418.971 -14579062.150 10 0 59889 58500.00000 0 12902621.225 18460339.145 -11914289.430 10 0 59889 59400.00000 0 13585517.175 19580032.100 -9017302.240 10 0 59889 60300.00000 0 14183813.350 20317665.384 -5944572.413 10 0 59889 61200.00000 0 14638474.477 20677069.307 -2755999.040 10 0 59889 62100.00000 0 14894051.408 20675382.948 486272.896 10 0 59889 63000.00000 0 14901213.492 20342151.803 3719077.710 10 0 59889 63900.00000 0 14619032.648 19717916.870 6879472.508 10 0 59889 64800.00000 0 14016921.323 18852356.732 9905973.308 10 0 59889 65700.00000 0 13076141.668 17802063.145 12739758.495 10 0 59889 66600.00000 0 11790821.879 16628045.942 15325815.206 10 0 59889 67500.00000 0 10168436.936 15393074.125 17614006.029 10 0 59889 68400.00000 0 8229733.857 14158966.309 19560035.404 10 0 59889 69300.00000 0 6008105.187 12983945.081 21126297.604 10 0 59889 70200.00000 0 3548437.516 11920166.374 22282590.989 10 0 59889 71100.00000 0 905483.524 11011526.768 23006686.196 10 0 59889 72000.00000 0 -1858174.391 10291839.403 23284738.861 10 0 59889 72900.00000 0 -4674484.431 9783453.216 23111540.618 10 0 59889 73800.00000 0 -7472512.379 9496371.434 22490605.022 10 0 59889 74700.00000 0 -10181148.899 9427904.402 21434087.989 10 0 59889 75600.00000 0 -12731826.515 9562869.629 19962545.113 10 0 59889 76500.00000 0 -15061135.382 9874329.471 18104530.938 10 0 59889 77400.00000 0 -17113231.247 10324834.783 15896047.875 10 0 59889 78300.00000 0 -18841937.593 10868122.181 13379854.928 10 0 59889 79200.00000 0 -20212456.392 11451193.895 10604648.753 10 0 59889 80100.00000 0 -21202617.675 12016693.467 7624131.919 10 0 59889 81000.00000 0 -21803616.986 12505478.184 4495985.217 10 0 59889 81900.00000 0 -22020210.598 12859280.823 1280762.754 10 0 59889 82800.00000 0 -21870360.554 13023349.315 -1959269.745 10 0 59889 83700.00000 0 -21384344.290 12948953.496 -5161331.826 10 0 59889 84600.00000 0 -20603365.734 12595653.255 -8263337.895 10 0 59889 85500.00000 0 -19577725.538 11933231.986 -11205096.409 10 0 59890 0.00000 0 -18364626.671 10943212.942 -13929475.468 10 0 59890 900.00000 0 -17025706.198 9619892.487 -16383513.686 10 0 59890 1800.00000 0 -15624398.015 7970846.236 -18519450.979 10 0 59890 2700.00000 0 -14223234.791 6016882.703 -20295663.948 10 0 59890 3600.00000 0 -12881203.886 3791445.132 -21677483.568 10 0 59890 4500.00000 0 -11651267.795 1339483.570 -22637880.283 10 0 59890 5400.00000 0 -10578153.707 -1284158.001 -23158002.302 10 0 59890 6300.00000 0 -9696505.554 -4016774.269 -23227555.903 10 0 59890 7200.00000 0 -9029476.902 -6790167.796 -22845019.443 10 0 59890 8100.00000 0 -8587824.605 -9533257.289 -22017685.983 10 0 59890 9000.00000 0 -8369542.032 -12174816.988 -20761532.724 10 0 59890 9900.00000 0 -8360047.994 -14646233.082 -19100918.823 10 0 59890 10800.00000 0 -8532923.741 -16884162.055 -17068116.679 10 0 59890 11700.00000 0 -8851167.057 -18832979.484 -14702685.141 10 0 59890 12600.00000 0 -9268910.207 -20446916.233 -12050696.604 10 0 59890 13500.00000 0 -9733528.406 -21691792.072 -9163833.061 10 0 59890 14400.00000 0 -10188048.535 -22546273.673 -6098369.175 10 0 59890 15300.00000 0 -10573754.688 -23002604.073 -2914063.123 10 0 59890 16200.00000 0 -10832878.549 -23066773.410 327022.003 10 0 59890 17100.00000 0 -10911258.890 -22758124.658 3561741.832 10 0 59890 18000.00000 0 -10760855.902 -22108412.347 6727113.899 10 0 59890 18900.00000 0 -10342012.480 -21160355.703 9761554.721 10 0 59890 19800.00000 0 -9625365.740 -19965749.165 12606085.397 10 0 59890 20700.00000 0 -8593327.388 -18583211.886 15205481.314 10 0 59890 21600.00000 0 -7241070.238 -17075672.756 17509343.202 10 0 59890 22500.00000 0 -5576979.487 -15507698.146 19473068.878 10 0 59890 23400.00000 0 -3622550.210 -13942775.497 21058707.370 10 0 59890 24300.00000 0 -1411735.836 -12440666.935 22235680.022 10 0 59890 25200.00000 0 1010224.700 -11054943.301 22981356.061 10 0 59890 26100.00000 0 3588451.916 -9830800.748 23281473.100 10 0 59890 27000.00000 0 6260474.410 -8803249.560 23130396.150 10 0 59890 27900.00000 0 8958596.530 -7995748.924 22531211.663 10 0 59890 28800.00000 0 11612487.530 -7419342.616 21495656.030 10 0 59890 29700.00000 0 14151886.115 -7072329.716 20043880.799 10 0 59890 30600.00000 0 16509309.763 -6940482.333 18204059.521 10 0 59890 31500.00000 0 18622658.070 -6997799.969 16011843.822 10 0 59890 32400.00000 0 20437603.890 -7207768.037 13509678.743 10 0 59890 33300.00000 0 21909674.524 -7525067.485 10745989.741 10 0 59890 34200.00000 0 23005937.765 -7897663.867 7774256.140 10 0 59890 35100.00000 0 23706223.644 -8269188.525 4651987.781 10 0 59890 36000.00000 0 24003831.550 -8581512.316 1439623.498 10 0 59890 36900.00000 0 23905693.395 -8777404.144 -1800628.207 10 0 59890 37800.00000 0 23431985.866 -8803162.734 -5005984.762 10 0 59890 38700.00000 0 22615207.483 -8611110.826 -8114298.960 10 0 59890 39600.00000 0 21498758.404 -8161846.363 -11065259.150 10 0 59890 40500.00000 0 20135081.695 -7426155.018 -13801557.216 10 0 59890 41400.00000 0 18583443.082 -6386502.144 -16270001.771 10 0 59890 42300.00000 0 16907441.561 -5038039.651 -18422554.775 10 0 59890 43200.00000 0 15172354.614 -3389083.244 -20217271.237 10 0 59890 44100.00000 0 13442428.900 -1461037.525 -21619123.376 10 0 59890 45000.00000 0 11778229.885 712230.448 -22600692.650 10 0 59890 45900.00000 0 10234161.558 3085545.508 -23142715.621 10 0 59890 46800.00000 0 8856260.464 5604060.735 -23234472.271 10 0 59890 47700.00000 0 7680357.053 8205309.429 -22874008.331 10 0 59890 48600.00000 0 6730681.965 10821588.641 -22068186.391 10 0 59890 49500.00000 0 6018976.273 13382575.844 -20832563.783 10 0 59890 50400.00000 0 5544143.563 15818069.978 -19191098.674 10 0 59890 51300.00000 0 5292458.671 18060742.445 -17175689.289 10 0 59890 52200.00000 0 5238324.255 20048782.722 -14825554.534 10 0 59890 53100.00000 0 5345542.942 21728327.162 -12186467.857 10 0 59890 54000.00000 0 5569050.517 23055568.534 -9309859.264 10 0 59890 54900.00000 0 5857035.726 23998457.131 -6251803.416 10 0 59890 55800.00000 0 6153355.507 24537921.532 -3071914.455 10 0 59890 56700.00000 0 6400141.596 24668557.698 167829.743 10 0 59890 57600.00000 0 6540486.219 24398757.806 3404309.548 10 0 59890 58500.00000 0 6521091.249 23750274.331 6574506.361 10 0 59890 59400.00000 0 6294766.981 22757239.131 9616740.512 10 0 59890 60300.00000 0 5822673.418 21464680.519 12471878.942 10 0 59890 61200.00000 0 5076208.407 19926602.614 15084488.146 10 0 59890 62100.00000 0 4038462.443 18203709.550 17403909.551 10 0 59890 63000.00000 0 2705178.698 16360871.654 19385236.569 10 0 59890 63900.00000 0 1085178.232 14464441.033 20990174.850 10 0 59890 64800.00000 0 -799767.065 12579529.509 22187770.228 10 0 59890 65700.00000 0 -2915608.016 10767362.591 22954991.651 10 0 59890 66600.00000 0 -5217209.622 9082819.258 23277159.450 10 0 59890 67500.00000 0 -7650010.676 7572258.774 23148212.336 10 0 59890 68400.00000 0 -10152082.699 6271723.265 22570809.539 10 0 59890 69300.00000 0 -12656503.148 5205588.901 21556267.347 10 0 59890 70200.00000 0 -15093945.360 4385719.624 20124332.207 10 0 59890 71100.00000 0 -17395379.040 3811156.638 18302795.164 10 0 59890 72000.00000 0 -19494770.635 3468354.859 16126955.113 10 0 59890 72900.00000 0 -21331673.067 3331955.042 13638940.801 10 0 59890 73800.00000 0 -22853598.741 3366058.411 10886903.856 10 0 59890 74700.00000 0 -24018078.347 3525950.004 7924097.514 10 0 59890 75600.00000 0 -24794320.749 3760198.423 4807857.686 10 0 59890 76500.00000 0 -25164405.349 4013044.043 1598504.904 10 0 59890 77400.00000 0 -25123957.274 4226975.708 -1641812.576 10 0 59890 78300.00000 0 -24682276.968 4345387.776 -4850313.055 10 0 59890 79200.00000 0 -23861918.153 4315205.787 -7964790.631 10 0 59890 80100.00000 0 -22697730.977 4089369.979 -10924816.368 10 0 59890 81000.00000 0 -21235409.370 3629071.446 -13672908.391 10 0 59890 81900.00000 0 -19529602.359 2905645.676 -16155648.310 10 0 59890 82800.00000 0 -17641667.418 1902042.289 -18324722.106 10 0 59890 83700.00000 0 -15637159.022 613807.198 -20137865.092 10 0 59890 84600.00000 0 -13583156.808 -950466.368 -21559692.205 10 0 59890 85500.00000 0 -11545544.741 -2769239.360 -22562396.935 10 0 59891 0.00000 0 -9586355.078 -4808679.063 -23126304.693 10 0 59891 900.00000 0 -7761287.222 -7023838.242 -23240269.309 10 0 59891 1800.00000 0 -6117508.175 -9360311.298 -22901903.425 10 0 59891 2700.00000 0 -4691823.455 -11756303.740 -22117638.343 10 0 59891 3600.00000 0 -3509298.169 -14145027.115 -20902610.359 10 0 59891 4500.00000 0 -2582385.316 -16457321.090 -19280375.186 10 0 59891 5400.00000 0 -1910598.246 -18624393.143 -17282455.151 10 0 59891 6300.00000 0 -1480740.952 -20580561.006 -14947727.312 10 0 59891 7200.00000 0 -1267686.081 -22265882.300 -12321664.126 10 0 59891 8100.00000 0 -1235667.067 -23628560.286 -9455441.476 10 0 59891 9000.00000 0 -1340028.590 -24627023.849 -6404931.839 10 0 59891 9900.00000 0 -1529359.855 -25231593.487 -3229603.118 10 0 59891 10800.00000 0 -1747918.543 -25425662.783 8654.233 10 0 59891 11700.00000 0 -1938240.804 -25206345.555 3246747.549 10 0 59891 12600.00000 0 -2043824.745 -24584561.859 6421624.323 10 0 59891 13500.00000 0 -2011771.856 -23584560.150 9471510.957 10 0 59891 14400.00000 0 -1795272.998 -22242897.020 12337122.489 10 0 59891 15300.00000 0 -1355832.622 -20606919.059 14962818.747 10 0 59891 16200.00000 0 -665136.539 -18732812.307 17297684.011 10 0 59891 17100.00000 0 293515.805 -16683302.708 19296509.293 10 0 59891 18000.00000 0 1524274.695 -14525105.195 20920658.680 10 0 59891 18900.00000 0 3018338.101 -12326228.864 22138804.058 10 0 59891 19800.00000 0 4754100.571 -10153250.918 22927515.377 10 0 59891 20700.00000 0 6697846.274 -8068672.612 23271696.659 10 0 59891 21600.00000 0 8804956.932 -6128466.165 23164860.992 10 0 59891 22500.00000 0 11021584.300 -4379913.042 22609240.766 10 0 59891 23400.00000 0 13286717.795 -2859821.513 21615732.280 10 0 59891 24300.00000 0 15534562.041 -1593195.324 20203676.728 10 0 59891 25200.00000 0 17697126.532 -592406.604 18400482.242 10 0 59891 26100.00000 0 19706921.030 143094.609 16241094.304 10 0 59891 27000.00000 0 21499646.078 626523.898 13767324.391 10 0 59891 27900.00000 0 23016768.117 882971.084 11027048.999 10 0 59891 28800.00000 0 24207873.217 948107.864 8073293.604 10 0 59891 29700.00000 0 25032702.301 866449.006 4963218.136 10 0 59891 30600.00000 0 25462783.568 689240.098 1757022.397 10 0 59891 31500.00000 0 25482594.074 472060.360 -1483208.367 10 0 59891 32400.00000 0 25090201.673 272241.040 -4694696.346 10 0 59891 33300.00000 0 24297359.783 146207.871 -7815180.122 10 0 59891 34200.00000 0 23129050.019 146859.468 -10784116.689 10 0 59891 35100.00000 0 21622490.611 321092.452 -13543853.568 10 0 59891 36000.00000 0 19825650.747 707578.263 -16040748.355 10 0 59891 36900.00000 0 17795331.715 1334886.477 -18226213.837 10 0 59891 37800.00000 0 15594893.847 2220035.162 -20057668.158 10 0 59891 38700.00000 0 13291723.250 3367531.290 -21499371.230 10 0 59891 39600.00000 0 10954543.465 4768943.711 -22523130.539 10 0 59891 40500.00000 0 8650683.815 6403029.082 -23108862.056 10 0 59891 41400.00000 0 6443418.299 8236407.918 -23244994.558 10 0 59891 42300.00000 0 4389486.239 10224764.667 -22928708.632 10 0 59891 43200.00000 0 2536898.440 12314523.581 -22166004.765 10 0 59891 44100.00000 0 923120.824 14444931.770 -20971598.224 10 0 59891 45000.00000 0 -426288.101 16550463.234 -19368641.787 10 0 59891 45900.00000 0 -1498528.768 18563443.685 -17388280.932 10 0 59891 46800.00000 0 -2293865.383 20416786.111 -15069049.438 10 0 59891 47700.00000 0 -2825371.617 22046721.801 -12456116.903 10 0 59891 48600.00000 0 -3118128.633 23395411.302 -9600402.803 10 0 59891 49500.00000 0 -3207910.420 24413324.588 -6557574.782 10 0 59891 50400.00000 0 -3139413.448 25061289.229 -3386951.548 10 0 59891 51300.00000 0 -2964107.367 25312119.531 -150332.937 10 0 59891 52200.00000 0 -2737799.776 25151757.507 3089218.703 10 0 59891 53100.00000 0 -2518020.248 24579877.530 6268620.375 10 0 59891 54000.00000 0 -2361336.491 23609929.670 9326007.937 10 0 59891 54900.00000 0 -2320718.004 22268620.699 12201947.797 10 0 59891 55800.00000 0 -2443060.193 20594855.912 14840596.202 10 0 59891 56700.00000 0 -2766974.502 18638187.611 17190783.125 10 0 59891 57600.00000 0 -3320938.293 16456836.787 19206999.739 10 0 59891 58500.00000 0 -4121882.371 14115372.152 20850270.808 10 0 59891 59400.00000 0 -5174275.193 11682144.405 22088896.158 10 0 59891 60300.00000 0 -6469741.605 9226583.142 22899048.253 10 0 59891 61200.00000 0 -7987231.356 6816468.841 23265215.907 10 0 59891 62100.00000 0 -9693729.787 4515292.525 23180487.245 10 0 59891 63000.00000 0 -11545480.679 2379811.354 22646667.999 10 0 59891 63900.00000 0 -13489670.206 457899.869 21674234.155 10 0 59891 64800.00000 0 -15466502.234 -1213216.167 20282120.824 10 0 59891 65700.00000 0 -17411579.300 -2608272.270 18497351.868 10 0 59891 66600.00000 0 -19258491.149 -3714771.728 16354517.525 10 0 59891 67500.00000 0 -20941504.314 -4533254.579 13895109.730 10 0 59891 68400.00000 0 -22398242.003 -5077019.506 11166727.197 10 0 59891 69300.00000 0 -23572243.741 -5371311.423 8222164.712 10 0 59891 70200.00000 0 -24415298.981 -5452009.503 5118403.095 10 0 59891 71100.00000 0 -24889457.854 -5363870.925 1915518.170 10 0 59891 72000.00000 0 -24968635.205 -5158404.011 -1324471.126 10 0 59891 72900.00000 0 -24639740.568 -4891459.916 -4538794.156 10 0 59891 73800.00000 0 -23903286.112 -4620643.936 -7665137.221 10 0 59891 74700.00000 0 -22773445.977 -4402655.239 -10642846.396 10 0 59891 75600.00000 0 -21277563.177 -4290667.144 -13414101.593 10 0 59891 76500.00000 0 -19455123.088 -4331858.702 -15925039.199 10 0 59891 77400.00000 0 -17356234.870 -4565202.333 -18126801.314 10 0 59891 78300.00000 0 -15039682.747 -5019601.872 -19976491.049 10 0 59891 79200.00000 0 -12570627.128 -5712460.977 -21438014.948 10 0 59891 80100.00000 0 -10018050.458 -6648744.007 -22482795.606 10 0 59891 81000.00000 0 -7452053.503 -7820570.978 -23090340.047 10 0 59891 81900.00000 0 -4941114.265 -9207365.884 -23248652.040 10 0 59891 82800.00000 0 -2549423.703 -10776554.336 -22954479.447 10 0 59891 83700.00000 0 -334409.348 -12484783.263 -22213390.862 10 0 59891 84600.00000 0 1655449.670 -14279613.232 -21039679.028 10 0 59891 85500.00000 0 3382424.579 -16101613.552 -19456091.984 99